Grand Junction, CO

11:12 PM MDT on September 18, 2019 (GMT -0600)
Walker

Weather History for KGJT - April, 2019

Change the Weather History Date:

Thursday, April 4, 2019

  Actual Average Record
Temperature  
Mean Temperature 54 °F 48 °F  
Max Temperature 67 °F 62 °F 81 °F (1959)
Min Temperature 41 °F 35 °F 15 °F (1945)
Degree Days  
Heating Degree Days 11 17  
Month to date heating degree days 52 68  
Since 1 July heating degree days 5160 5100  
Cooling Degree Days 0 0  
Month to date cooling degree days 0 0  
Year to date cooling degree days 0 0  
Growing Degree Days 4 (Base 50)    
Moisture  
Dew Point 35 °F    
Average Humidity 53    
Maximum Humidity 76    
Minimum Humidity 29    
Precipitation  
Precipitation 0.00 in 0.03 in 0.75 in (1997)
Month to date precipitation 0.01 0.13  
Year to date precipitation 3.74 2.17  
Snow  
Snow 0.00 in 0.00 in 3.20 in (1901)
Month to date snowfall 0.0 0.2  
Since 1 July snowfall 17.4 18.3  
Snow Depth 0.00 in    
Sea Level Pressure  
Sea Level Pressure 29.97 in    
Wind  
Wind Speed 8 mph (ESE)    
Max Wind Speed 18 mph    
Max Gust Speed 24 mph    
Visibility 10 miles    
Events      
T = Trace of Precipitation, MM = Missing Value Source: NWS Daily Summary

Daily Weather History Graph

Daily Weather History Graph

Search for Another Location

Airport or City:

Astronomy

Apr. 04, 2019 Rise Set
Actual Time 6:54 AM MDT 7:40 PM MDT
Civil Twilight 6:27 AM MDT 8:07 PM MDT
Nautical Twilight 5:55 AM MDT 8:39 PM MDT
Astronomical Twilight 5:22 AM MDT 9:13 PM MDT
Moon 6:58 AM MDT (4/4) 7:11 PM MDT (4/4)
Length of Visible Light 13h 40m
Length of Day
12h 46m
Waning Crescent, 0% of the Moon is Illuminated
Apr 4
Waning Crescent
Apr 5
New
Apr 12
First Quarter
Apr 19
Full
Apr 26
Last Quarter

Hourly Weather History & Observations

Time (MDT) Temp. Windchill Dew Point Humidity Pressure Visibility Wind Dir Wind Speed Gust Speed Precip Events Conditions
12:53 AM 45.0 °F 40.6 °F 37.0 °F 74% 30.01 in 10.0 mi ESE 8.1 mph - N/A   Mostly Cloudy
1:53 AM 46.0 °F 39.6 °F 37.0 °F 71% 30.01 in 10.0 mi ESE 15.0 mph - N/A   Overcast
2:53 AM 46.0 °F 39.6 °F 36.0 °F 68% 30.02 in 10.0 mi SE 15.0 mph - N/A   Overcast
3:53 AM 45.0 °F 38.5 °F 36.0 °F 71% 30.02 in 10.0 mi ESE 13.8 mph - N/A   Overcast
4:53 AM 45.0 °F 38.2 °F 36.0 °F 71% 30.02 in 10.0 mi East 15.0 mph - N/A   Overcast
5:53 AM 43.0 °F 36.4 °F 34.0 °F 71% 30.04 in 10.0 mi ESE 12.7 mph - N/A   Clear
6:53 AM 42.1 °F 34.9 °F 35.1 °F 76% 30.06 in 10.0 mi East 13.8 mph - N/A   Partly Cloudy
7:53 AM 46.0 °F 41.0 °F 36.0 °F 68% 30.06 in 10.0 mi ESE 10.4 mph - N/A   Partly Cloudy
8:53 AM 48.9 °F - 37.9 °F 66% 30.08 in 10.0 mi ESE 13.8 mph - N/A   Clear
9:53 AM 52.0 °F - 35.1 °F 53% 30.06 in 10.0 mi SE 10.4 mph - N/A   Clear
10:53 AM 55.0 °F - 37.0 °F 51% 30.06 in 10.0 mi SSE 5.8 mph - N/A   Overcast
11:53 AM 57.0 °F - 36.0 °F 45% 30.04 in 10.0 mi Variable 3.5 mph - N/A   Scattered Clouds
12:53 PM 61.0 °F - 34.0 °F 36% 30.00 in 10.0 mi Calm Calm - N/A   Scattered Clouds
1:53 PM 63.0 °F - 32.0 °F 31% 29.96 in 10.0 mi NW 5.8 mph - N/A   Mostly Cloudy
2:53 PM 64.9 °F - 34.0 °F 32% 29.94 in 10.0 mi West 5.8 mph - N/A   Mostly Cloudy
3:53 PM 66.0 °F - 33.1 °F 29% 29.90 in 10.0 mi WNW 9.2 mph - N/A   Scattered Clouds
4:53 PM 64.0 °F - 34.0 °F 33% 29.88 in 10.0 mi NW 4.6 mph - N/A   Clear
5:53 PM 64.0 °F - 34.0 °F 33% 29.88 in 10.0 mi NW 6.9 mph - N/A   Mostly Cloudy
6:53 PM 62.1 °F - 36.0 °F 38% 29.89 in 10.0 mi WNW 4.6 mph - N/A   Scattered Clouds
7:53 PM 59.0 °F - 37.9 °F 46% 29.88 in 10.0 mi Calm Calm - N/A   Clear
8:53 PM 55.0 °F - 39.0 °F 55% 29.88 in 10.0 mi Calm Calm - N/A   Clear
9:53 PM 54.0 °F - 37.0 °F 53% 29.89 in 10.0 mi ENE 5.8 mph - N/A   Clear
10:53 PM 54.0 °F - 33.1 °F 45% 29.87 in 10.0 mi ESE 9.2 mph - N/A   Clear
11:53 PM 55.0 °F - 30.0 °F 38% 29.86 in 10.0 mi ESE 6.9 mph - N/A   Clear